Location: ?p Thanh B�nh
(16.5833°N, 107.5333°E)
Time: 05:42:37
(UTC+00:00)

Meteor 1-16 Rocket - Pass Details

Date: 29 October 2020
Orbit: 790 x 907 km, 81.2° (Epoch: 29 November)

Event Time Altitude Azimuth Distance (km) Brightness Sun altitude
Exits shadow 20:55:48 82° 337° (NNW) 816 3.9 -26.9°
Maximum altitude 20:56:03 87° 267° (W) 810 3.9 -26.9°
Drops below altitude 10° 21:01:30 10° 176° (S) 2,412 6.7 -25.6°
Sets 21:03:55 0° 176° (S) 3,361 7.5 -25.0°
